Total_Precipitation_Accumulation
1.75 1.30 2.16 2.13 1.92 1.67 1.52 1.55 1.64 1.70 1.72 1.64 1.57 1.44 1.26 1.12 1.00 0.90 0.83 0.76 0.74 0.78 0.90 0.92 0.86 0.85 0.74 0.71 0.74 0.79 0.79 0.77 0.77 0.67 0.62 0.62 0.67 0.76 0.94 1.10 1.39 1.80 1.37
1.18 1.06 1.98 2.22 2.03 1.83 1.72 1.65 1.63 1.65 1.67 1.54 1.44 1.37 1.20 1.03 0.93 0.87 0.81 0.77 0.73 0.71 0.81 0.86 0.86 0.89 0.86 0.83 0.90 0.95 0.87 0.80 0.88 0.85 0.91 0.98 0.85 0.83 0.86 1.03 1.47 1.76 1.33
1.00 0.96 1.46 2.13 2.09 1.96 1.87 1.72 1.64 1.60 1.49 1.33 1.26 1.12 1.05 0.93 0.83 0.79 0.79 0.80 0.76 0.69 0.73 0.79 0.84 0.89 0.89 0.94 0.97 0.99 0.96 0.96 0.98 1.01 1.41 1.92 1.44 1.06 1.03 1.07 1.15 1.19 1.18
0.82 0.86 1.12 1.71 1.78 1.76 1.73 1.58 1.54 1.41 1.27 1.30 1.29 1.08 0.98 0.93 0.89 0.87 0.87 0.77 0.72 0.69 0.75 0.79 0.82 0.90 0.94 0.95 0.90 0.88 0.90 0.97 1.07 1.08 1.49 1.93 1.88 1.42 1.25 1.22 1.10 1.07 1.19
0.70 0.85 1.24 1.63 1.64 1.64 1.57 1.41 1.40 1.26 1.14 1.15 1.18 1.10 1.06 0.98 0.91 0.86 0.86 0.84 0.78 0.76 0.78 0.78 0.84 0.90 0.95 0.98 0.92 0.86 0.89 1.11 1.11 1.03 1.31 1.64 2.03 1.66 1.33 1.32 1.22 1.17 1.26
0.83 0.85 1.04 1.34 1.41 1.41 1.24 1.20 1.24 1.17 1.14 1.06 0.99 0.99 1.01 0.96 0.92 0.85 0.87 0.88 0.83 0.82 0.85 0.87 0.93 0.95 0.94 0.95 0.94 0.99 1.07 1.13 1.03 1.19 1.39 1.62 1.88 1.62 1.27 1.18 1.26 1.36 1.46
0.75 0.73 0.82 1.15 1.18 1.17 1.09 1.11 1.22 1.16 1.11 0.99 0.93 1.01 1.07 0.98 0.93 0.89 0.90 0.89 0.87 0.83 0.85 0.90 0.95 0.96 0.88 0.88 0.91 0.97 1.07 1.03 1.08 1.30 1.40 1.58 1.56 1.46 1.23 1.10 1.25 1.35 1.47
0.90 0.79 0.79 1.08 1.13 1.07 1.07 1.05 1.12 1.18 1.08 0.97 0.93 0.95 0.95 0.90 0.84 0.84 0.84 0.86 0.88 0.86 0.89 0.89 0.93 0.90 0.78 0.79 0.81 0.87 1.01 0.95 0.92 1.10 1.26 1.50 1.58 1.46 1.14 1.06 1.13 1.26 1.42
1.23 1.12 1.02 1.03 0.99 1.04 1.07 1.02 1.18 1.32 1.17 1.01 0.90 0.88 0.82 0.78 0.74 0.73 0.76 0.85 0.87 0.89 0.87 0.86 0.92 0.88 0.81 0.78 0.79 0.89 1.02 0.96 0.85 1.01 1.04 1.39 1.64 1.48 1.21 1.08 1.09 1.26 1.39
1.20 1.15 1.14 1.17 1.15 1.15 1.16 1.24 1.40 1.70 1.57 1.20 0.98 0.85 0.79 0.73 0.69 0.73 0.70 0.78 0.89 0.95 0.96 0.95 0.99 0.95 0.94 0.87 0.86 0.95 1.01 0.81 0.80 0.79 0.95 1.21 1.67 1.54 1.26 1.09 1.04 1.10 1.18
0.93 0.96 1.02 1.07 1.07 1.10 1.06 1.22 1.51 1.81 1.86 1.52 1.22 1.06 0.88 0.62 0.62 0.72 0.70 0.85 0.98 1.04 1.09 1.16 1.18 1.10 1.04 0.93 0.93 0.97 0.83 0.63 0.85 0.88 0.99 1.30 1.59 1.58 1.28 1.04 0.96 1.00 1.00
0.71 0.66 0.66 0.69 0.75 0.79 0.84 1.11 1.33 1.40 1.60 1.39 1.35 1.20 1.05 0.97 0.90 0.72 0.71 0.94 1.13 1.13 1.12 1.21 1.32 1.14 0.92 0.72 0.77 0.84 0.64 0.59 0.75 0.81 0.92 1.44 1.77 1.71 1.36 1.13 1.07 1.05 0.97
0.63 0.58 0.52 0.51 0.55 0.62 0.75 0.96 1.16 1.30 1.46 1.46 1.43 1.36 1.35 1.30 0.96 0.80 0.88 0.94 1.05 1.06 0.95 1.01 1.07 0.90 0.73 0.66 0.74 0.70 0.58 0.59 0.71 0.82 1.02 1.49 1.86 1.83 1.45 1.19 1.20 1.14 1.07
0.55 0.62 0.55 0.42 0.42 0.45 0.53 0.73 0.93 1.13 1.32 1.35 1.17 1.09 1.21 1.23 1.03 0.90 1.04 1.13 1.16 1.15 1.16 1.16 1.11 0.97 0.76 0.70 0.69 0.69 0.63 0.67 0.74 0.82 1.01 1.19 1.62 1.81 1.67 1.44 1.39 1.27 1.28
0.55 0.62 0.63 0.53 0.45 0.44 0.49 0.57 0.63 0.91 1.10 1.25 1.28 1.05 1.17 1.21 1.13 1.01 0.95 1.13 1.12 1.16 1.21 1.22 1.22 1.10 0.99 0.87 0.82 0.73 0.78 0.77 0.74 0.71 0.88 0.95 1.21 1.58 1.78 1.76 1.72 1.52 1.46
0.50 0.57 0.59 0.61 0.58 0.55 0.53 0.55 0.54 0.58 0.69 0.81 0.77 0.74 0.93 1.05 1.02 1.03 0.90 0.97 1.06 1.20 1.41 1.45 1.28 1.19 1.11 1.03 1.01 0.95 0.93 0.88 0.85 0.72 0.83 0.89 0.84 1.00 1.35 1.74 1.94 1.80 1.67
0.47 0.52 0.55 0.60 0.65 0.66 0.65 0.73 0.66 0.61 0.65 0.64 0.61 0.62 0.73 0.84 0.86 0.99 0.98 0.96 1.00 1.22 1.45 1.58 1.47 1.35 1.18 1.13 1.12 1.09 1.00 1.01 0.98 0.89 0.90 1.00 0.84 0.78 1.02 1.47 1.88 1.99 1.90
0.42 0.41 0.44 0.47 0.52 0.57 0.61 0.68 0.76 0.75 0.76 0.72 0.75 0.71 0.67 0.80 0.92 1.05 1.10 1.04 1.04 1.24 1.46 1.64 1.68 1.63 1.50 1.41 1.33 1.24 1.17 1.25 1.12 1.03 1.01 1.08 1.16 0.99 0.95 1.14 1.43 1.74 1.98
0.39 0.34 0.32 0.33 0.34 0.38 0.43 0.54 0.66 0.74 0.81 0.87 0.89 0.87 0.85 0.90 0.94 1.08 1.25 1.27 1.27 1.38 1.46 1.49 1.57 1.56 1.58 1.57 1.40 1.38 1.31 1.39 1.39 1.25 1.30 1.30 1.32 1.26 1.11 0.97 1.06 1.14 1.53
0.32 0.32 0.31 0.32 0.31 0.28 0.32 0.45 0.56 0.63 0.72 0.88 0.95 1.02 1.28 1.37 1.16 1.13 1.26 1.28 1.34 1.51 1.54 1.66 1.83 1.73 1.61 1.70 1.57 1.49 1.44 1.41 1.40 1.44 1.50 1.50 1.47 1.32 1.27 1.10 1.09 0.93 1.06
0.18 0.17 0.19 0.24 0.31 0.30 0.26 0.33 0.44 0.54 0.68 0.81 0.98 1.05 1.29 1.39 1.30 1.32 1.32 1.33 1.36 1.43 1.48 1.65 1.99 1.98 1.79 1.69 1.88 1.87 1.77 1.57 1.49 1.50 1.53 1.63 1.63 1.44 1.40 1.44 1.31 1.09 0.91
0.11 0.10 0.12 0.16 0.25 0.33 0.36 0.41 0.53 0.71 0.83 0.93 1.07 1.14 1.26 1.28 1.28 1.21 1.36 1.46 1.41 1.52 1.60 1.75 2.01 2.19 1.98 1.80 2.12 2.53 2.32 2.05 1.71 1.51 1.50 1.43 1.54 1.56 1.46 1.34 1.27 1.18 1.04
0.08 0.08 0.13 0.21 0.34 0.50 0.66 0.88 1.13 1.41 1.53 1.43 1.29 1.37 1.49 1.56 1.53 1.46 1.53 1.67 1.58 1.60 1.67 1.71 1.79 2.20 2.34 2.12 2.08 2.60 2.48 2.30 2.22 1.73 1.39 1.26 1.46 1.58 1.57 1.44 1.34 1.35 1.28
0.15 0.22 0.31 0.42 0.58 0.74 0.95 1.17 1.43 1.68 1.84 1.86 1.87 1.92 1.89 1.85 1.75 1.63 1.64 1.68 1.68 1.73 1.68 1.57 1.72 2.11 2.53 2.54 2.34 2.14 2.01 1.99 2.18 2.07 1.54 1.28 1.36 1.49 1.64 1.54 1.47 1.46 1.42
0.33 0.45 0.56 0.77 0.93 1.07 1.14 1.23 1.46 1.57 1.64 1.75 1.89 1.95 1.94 1.87 1.76 1.61 1.55 1.60 1.67 1.75 1.75 1.80 1.96 2.24 2.49 2.69 2.62 2.37 2.11 1.90 1.60 1.79 1.79 1.59 1.37 1.30 1.37 1.46 1.55 1.53 1.46
0.62 0.84 0.98 1.08 1.17 1.16 1.14 1.16 1.30 1.44 1.54 1.62 1.76 1.81 1.75 1.63 1.59 1.53 1.51 1.49 1.45 1.52 1.63 1.80 2.03 2.17 2.35 2.57 2.57 2.31 2.14 2.02 1.86 1.74 1.61 1.67 1.66 1.39 1.25 1.23 1.33 1.44 1.44